Showing default

PICO-02I029, 60568

Orbit data source: Space-Track

PICO-02I029, 60568 is a payload satellite owned by Apogeo Space (IT) in SSO that was launched on Fri, 16 Aug 2024 UTC via an FALCON 9 launch vehicle from the Air Force Western Test Range (AFWTR). Payload-class satellites include a variety of spacecraft equipped with specific instruments for various scientific and technological missions. These include communications satellites like Starlink; space stations such as the ISS; scientific satellites like the Hubble; Earth observation satellites from companies like Planet Labs, Umbra, and HawkEye 360; GPS; miniature CubeSats for education and research; and military/defense satellites.

Loading next visibility...
Identifier
60568, 2024-149DE
Orbit
SSO
Country
Flag of ITIT
Related business
Manufacturer
Apogeo Space
Mission
Operational Commercial Communications
Bus & Motor
CUBESAT 0.3U, Unknown motor
Mass
0.5 kg wet, 0.5 kg dry
Launch date (UTC)
2024-08-16 (1 year ago)
Launch vehicle
FALCON 9
Launch site
Air Force Western Test Range (AFWTR)
Object type
Payload
Rocket body
Debris
Shape & HBR
Box, 0.1 m
Radar Cross Section
0.008 m², Medium (>0.1 m² and < 1m²)

Expand to show TLE details & history
Last TLE update: 15 hours ago

TLE from 15 hours ago
0 PICO-02I029
1 60568U 24149DE  25287.22491600  .00085535  00000-0  27776-2 0  9990
2 60568  97.6980  12.0832 0002177 249.4708 110.6299 15.31595108 63895
Epoch: 2025-10-14T05:23Z
TLE epoch observation values (Epoch: 2025-10-14T05:23:52.742Z)
Latitude
-0.00002°
Longitude
-91.90296°
Altitude
474.676 km
Speed
7.628 km/s
True Right ascension
00h 48m 19s
True Declination
0° 00' 00"
Sunlit
Object was in full shadow at epoch
Visualization orbit readout
Latitude
Unknown
Longitude
Unknown
Altitude
Unknown
Speed
Unknown
Apparent Right ascension
Unknown
Apparent Declination
Unknown
Sunlit
N/A
Visualization observer readout
Local Sidereal Time
14:42:48
Azimuth
Unknown
Elevation
Unknown
Doppler factor
Unknown
Orbital elements
Apogee altitude
469.506 km
Perigee altitude
466.525 km
Semi-major axis
6,846.153 km
Eccentricity
0.00022
Inclination
97.698°
RAAN
12.0832°
Arg. of periapsis
249.4708°
True anomaly
110.65324°
Mean anomaly
110.6299°
Eccentric anomaly
110.64157°
Mean motion
3.83154 °/min
Orbital period
93.96 mins
BSTAR
0.0027776
Loading maneuver chart data...
Computing Atmospheric mass density...
Loading historical data...
Loading historical data...
Loading historical data...
Loading historical data...
Loading historical data...
Loading historical data...
Loading historical data...

Documentation

Showing up to 5 results
|